Погода в Стерлитамаке

Погода в Стерлитамаке : погода сейчас, прогноз погоды и архив. Всё, что Вы хотите узнать о погоде в Стерлитамаке!

Хотите узнать прогноз погоды в Стерлитамаке? Тогда Вам сюда: Погода в Стерлитамаке

Поиск расширенной информации на нашем сайте:

Полезная информация:

Другие новости

Новости СМИ2

Главная страница сайта

Новости сайта

03.07.2017

Напоминаем, что на нашем специализированном сайте Метеоцентр.Азия вы можете получить высокодетализированные автоматические прогнозы погоды по пунктам России, СНГ и мира в авиационном формате (включающие направление и скорость ветра, видимость, явления погоды, количество и форму облачности, нижнюю и верхнюю границу облачности).

Рекомендуем:

Погода в Стерлитамаке - сегодня

Время (UTC), дата Ветер
(°,м/с) 
Видим.   Явления Облачность Т
(°С)
Тd
(°С)
f(%) Тe
(°С)
Pmin
(гПа)
dP
(гПа)
Po
(мм)
O2
(г/м3)
Тmin Tmax R s Состояние
почвы
00 22.05.19 240 (ЮЗ) 10 км    8/8 600 м кучево-дожд. 
[Cb cap]
+6.9 -3 49 +8  1017.2  0.3  750  295           
03 22.05.19 220 (ЮЗ) 20000 м    8/0 средняя 
[Ac trans]
+10 -1.4 45 +11  1017.4  0.4  751  292  +6.9        сухая 
06 22.05.19 320 (СЗ) 20000 м    6/6 1000 м 
[Sc]
+15.3 -5.6 23 +15  1016.9  -0.2  750  287           
09 22.05.19 310 (СЗ) 20000 м    8/8 1000 м 
[Sc]
+17.8 -5.9 19 +18  1015.7  -1  750  284           
12 22.05.19 280 (З) 20000 м    8/8 1000 м 
[Sc]
+18.1 -5.2 20 +19  1014.3  -1.3  749  283           
15 22.05.19 250 (З) 10 км    9/0 средняя, верхняя 
[Ac cuf|Ci sp]
+17.7 -3.3 24 +19  1013.5  -0.9  748  283    +19       
18 22.05.19 220 (ЮЗ) 10 км    10/3 1000 м кучево-дожд., верхняя 
[Cb cap|Ci sp]
+12.3 +0.4 44 +14  1013.7  0.1  748  288           
21 22.05.19 200 (Ю) 10 км  слаб. ливневой дождь  10/10 600 м кучево-дожд. 
[Cb cap]
+11.1 +7.2 77 +11  1014  0.3  748  288           
00 23.05.19 170 (Ю) 4000 м  слаб. ливневой дождь  10/10 600 м кучево-дожд. 
[Cb cap]
+10 +8 87 +11  1013.3  -0.8  748  289           
03 23.05.19 190 (Ю) 10 км  слаб. ливневой дождь  10/10 600 м кучево-дожд. 
[Cb cap]
+10.2 +8.3 88 +10  1011.9  -1.4  746  288  +9.8      влажная 
06 23.05.19 200 (Ю) 10 км  слаб. ливневой дождь  10/10 600 м кучево-дожд. 
[Cb cap]
+15.2 +10.3 73 +19  1010.1  -1.4  745  283           
09 23.05.19 230 (ЮЗ) 20000 м  {ливн. осадки}  9/3 1000 м кучево-дожд., верхняя 
[Cb cap|Ci sp]
+20 +8.4 47 +20  1008.5  -1.3  744  278           
12 23.05.19 250 (З) 10 км  в посл. час ливневой дождь{гроза}  9/8 600 м кучево-дожд., средняя, верхняя 
[Cb cap|Ac trans|Ci fib]
+19.5 +7.7 46 +21  1006.6  -1.9  743  278           
15 23.05.19 230 (ЮЗ) 10 км    9/0 средняя, верхняя 
[Ac trans|Cs]
+21.5 +0 24 +22  1004.9  -1.6  742  277    +22.9     
18 23.05.19 220 (ЮЗ) 10 км    8/0 средняя, верхняя 
[Ac trans|Cs]
+16.6 +2.9 40 +17  1005.5  0.3  742  281           
21 23.05.19 200 (Ю) 10 км    9/0 средняя, верхняя 
[Ac trans|Ci fib]
+13.8 +2.3 46 +14  1004.9  -0.8  742  284           
00 24.05.19 200 (Ю) 10 км    9/0 средняя, верхняя 
[Ac As|Cs]
+11.2 +1.9 53 +11  1004  -1  741  286           
03 24.05.19 220 (ЮЗ) 20000 м    9/0 средняя, верхняя 
[Ac trans|Ci fib]
+14.6 +3.3 47 +15  1002.8  -1  740  283  +11        влажная 
06 24.05.19 230 (ЮЗ) 20000 м    9/0 средняя, верхняя 
[Ac trans|Cc]
+21.4 +3.5 31 +21  1000.6  -1.9  739  275           
09 24.05.19 350 (С) 3{12}  4000 м  ливневой дождь  10/10 600 м кучево-дожд. 
[Cb cap]
+12.6 +9.6 82 +13  1002.8  1.7  740  283           
12 24.05.19 360 (С) 10 км  в посл. час ливневой дождь  10/10 600 м кучево-дожд. 
[Cb cap]
+7.9 +5.2 83 +7  1006.8  3.7  743  290           
15 24.05.19 020 (С) 10 км    8/8 600 м кучево-дожд. 
[Cb cap]
+8.8 +2.1 63 +8  1009.1  3.4  744  290    +21.4     
18 24.05.19 350 (С) 10 км    ясно 
+5.6 -2.1 58 +5  1012.3  2.9  747  295           
21 24.05.19 360 (С) 10 км    ясно 
+4 -2.8 61 +4  1014.5  2.1  748  297           
00 25.05.19 020 (С) 10 км    ясно 
+2.2 -2.7 70 +3  1016.8  2.2  750  300           
Время (UTC), дата Ветер
(°,м/с) 
Видим.   Явления Облачность Т
(°С)
Тd
(°С)
f(%) Тe
(°С)
Pmin
(гПа)
dP
(гПа)
Po
(мм)
O2
(г/м3)
Тmin Tmax R s Состояние
почвы

Для получения пояснительной информации подведите курсор к названию столбца.

ПОГОДА в Стерлитамаке - архив

Всё, что Вы хотите узнать о погоде в Стерлитамаке - удобно и подробно!

Выберите нужную дату (начиная с 1 января 2018* года) и нажмите кнопку "Найти".
Будут отображены архивные сводки погоды по пункту Стерлитамак, начиная с указанной даты.


Отображать данные в формате CSV (для использования в таблицах Excel)


Внимание! Наш архив погоды предназначен исключительно для личного некоммерческого использования в познавательных целях. Если Вам необходимы официальные справки о состоянии погоды (для производственных, юридических, коммерческих и т.п. целей), обращайтесь в органы Росгидромета.

*Примечание: данная дата относится к архиву по метеостанциям СССР (Россия, СНГ, Балтия).
Архив по метеостанциям Зарубежной Европы и Азии (кроме Китая) хранится 10 дней, по другим регионам земного шара (Китай, Африка, Америка, Австралия, Океания) - 1 день.

Стерлитамак - район местоположения метеостанции


Название, широта, долгота, высота метеостанции:
Стерлитамак 53.6°ш. 56°д. 137 м над ур. моря [Российская Федерация]

Дополнительная информация

В oтличие oт бoльшинства пoгoдных сайтoв мы публикуем пoдрoбную метеoинфoрмацию в детальнoм прoфессиoнальнoм фoрмате.

Характеристики температуры и влажнoсти вoздуха измеряются на высoте 2 м в тени вдали oт зданий и деревьев.
Скoрoсть ветра измеряется на высoте 10 м (на урoвне рoста челoвека скoрoсть ветра ниже в 1.5-2 раза). Если метеoстанция нахoдится в гoрoде или в лесу, тo скoрoсть ветра занижена на 2-4 м/с пo сравнению с oткрытым местoм. Скoрoсть ветра над акватoриями крупных рек и oзёр, а также на вершинах хoлмoв на 2-5 м/с выше, чем в oбычных услoвиях.
Атмoсфернoе давление в разных тoчках местнoсти мoжет значительнo oтличаться oт давления на метеoстанции, в зависимoсти oт услoвий рельефа (при пoдъёме на 10 м давление пoнижается примернo на 1 мм рт.ст.).